Regional Weather Roundup
Issued by NWS

Home | Current Version | Previous Version | Graphics & Text | Print | Product List | Glossary On
Versions: 1 2 3 4 5 6 7 8 9 10 11 12 13 14 15 16 17 18 19 20 21 22 23 24 25 26 27 28 29 30 31 32 33 34 35 36 37 38 39 40 41 42 43 44 45 46 47 48 49 50
000
ASUS43 KMKX 210900
RWRWI

WISCONSIN REGIONAL WEATHER ROUNDUP
NATIONAL WEATHER SERVICE MILWAUKEE/SULLIVAN WI
400 AM CDT MON AUG 21 2017

NOTE: "FAIR" INDICATES FEW OR NO CLOUDS BELOW 12,000 FEET WITH NO
SIGNIFICANT WEATHER AND/OR OBSTRUCTIONS TO VISIBILITY.

WIZ001-002-006>008-014>016-023>028-211000-
NORTHWEST WISCONSIN

CITY           SKY/WX    TMP DP  RH WIND       PRES   REMARKS
SUPERIOR ARPT    N/A     49  49 100 CALM      30.02S FOG
ASHLAND        CLEAR     54  52  93 NW6       30.02F
HAYWARD        FOG       51  50  96 CALM      30.05R VSB 1/2
SIREN          PTCLDY    54  53  95 CALM      30.04R
CUMBERLAND     CLEAR     55  54  94 CALM      30.05R
RICE LAKE      CLOUDY    62  60  94 CALM      30.06R
CHETEK         MOCLDY    64  59  83 CALM      30.04S
LADYSMITH      CLOUDY    65  60  84 CALM      30.06R
EAU CLAIRE     CLOUDY    67  63  87 N5        30.03R
MENOMONIE      CLOUDY    68  63  85 CALM      30.04R
NEW RICHMOND   MOCLDY    60  60  99 E3        30.04S
OSCEOLA        MOCLDY    57  57 100 CALM      30.06R
$$

WIZ003>005-009-010-017-018-211000-
NORTH CENTRAL WISCONSIN

CITY           SKY/WX    TMP DP  RH WIND       PRES   REMARKS
MANITOWISH WTR FOG       54  54 100 CALM      30.04S VSB<1/4
ARBOR VITAE    CLEAR     62  60  93 CALM      30.04R
WOODRUFF       CLEAR     62  60  93 CALM      30.04R
RHINELANDER    CLOUDY    64  63  96 CALM      30.06R
EAGLE RIVER    CLOUDY    62  58  87 CALM      30.03S
LAND O LAKES   CLEAR     58  57  95 CALM      30.04F
PHILLIPS       CLOUDY    64  61  91 CALM      30.04R
TOMAHAWK         N/A     63  60  89 CALM      30.05R
MEDFORD        CLOUDY    61  61  99 CALM      30.03R FOG
MERRILL        NOT AVBL
$$

WIZ029-030-035-036-043>047-211000-
CENTRAL WISCONSIN

CITY           SKY/WX    TMP DP  RH WIND       PRES   REMARKS
WAUSAU         CLEAR     66  65  96 CALM      30.02R FOG
MOSINEE        PTCLDY    64  64 100 CALM      30.04R FOG
MARSHFIELD     CLOUDY    64  62  93 SW3       30.03R FOG
STEVENS POINT  PTCLDY    62  62 100 CALM      30.03S
WAUPACA          N/A     66  66  97 CALM      30.02R FOG
WAUTOMA        PTCLDY    61  60  97 CALM      30.05R
WISC RAPIDS    CLOUDY    64  64 100 SW6       30.04S
CAMP DOUGLAS   CLOUDY    61  61 100 CALM      30.04R FOG
$$

WIZ011>013-019>022-031-037>040-048>050-211000-
NORTHEAST WISCONSIN

CITY           SKY/WX    TMP DP  RH WIND       PRES   REMARKS
ANTIGO         FOG       60  60 100 CALM      30.05R VSB 1
SHAWANO        CLEAR     68  66  92 CALM      30.01R
OCONTO         PTCLDY    64  64  98 CALM      30.00R
STURGEON BAY   CLEAR     70  67  90 SW6       30.02R
GREEN BAY      CLEAR     66  66 100 CALM      30.02R
MANITOWOC      FOG       64  64 100 CALM      30.03R VSB 1/2
APPLETON       CLOUDY    64  63  94 W5        30.01R
CLINTONVILLE   PTCLDY    64  63  94 SW5       30.01R
OSHKOSH        MOCLDY    66  64  93 SW5       30.03R
$$

WIZ032>034-041-042-053>061-211000-
SOUTHWEST WISCONSIN

CITY           SKY/WX    TMP DP  RH WIND       PRES   REMARKS
LA CROSSE      CLOUDY    70  67  90 CALM      30.02R
SPARTA         CLOUDY    59  59 100 CALM      30.05R
VIROQUA        CLOUDY    64  63  99 CALM      30.05R
BOSCOBEL       FOG       63  62  97 CALM      30.02S VSB 1/4
PRAIRIE DU CHI CLOUDY    64  62  94 CALM      30.01S
PLATTEVILLE    CLOUDY    66  66 100 E6        30.04R
$$

WIZ056-057-062-063-064-067-068-211000-
SOUTH CENTRAL WISCONSIN

CITY           SKY/WX    TMP DP  RH WIND       PRES   REMARKS
REEDSBURG      CLOUDY    62  62 100 CALM      30.04R
BARABOO/DELLS    N/A     63  62  95 CALM      30.04S FOG
LONE ROCK      FOG       63  63 100 CALM      30.03R VSB 3/4
MINERAL POINT  CLOUDY    64  64 100 SE3       30.04S
MADISON        CLOUDY    64  64 100 CALM      30.04R FOG
MIDDLETON      CLOUDY    62  62 100 CALM      30.04F
WATERTOWN      CLOUDY    64  64 100 NW5       30.03R FOG
MONROE         CLOUDY    68  64  88 SE3       30.04F
JANESVILLE     CLOUDY    64  64 100 CALM      30.01F FOG
$$

WIZ051-052-058>065-066-070>072-211000-
SOUTHEAST WISCONSIN

CITY           SKY/WX    TMP DP  RH WIND       PRES   REMARKS
MILWAUKEE      CLOUDY    69  67  93 CALM      30.02R
WAUKESHA         N/A     63  63 100 CALM      30.04S FOG
MILWAUKEE/TIMM CLOUDY    64  61  88 CALM      30.03S
RACINE         CLOUDY    68  68 100 CALM      30.04S
KENOSHA        CLOUDY    66  65  96 CALM      30.02F FOG
FOND DU LAC    CLOUDY    64  62  93 S5        30.04R FOG
SHEBOYGAN      CLOUDY    62  62 100 SE5       30.03R FOG
WEST BEND      PTCLDY    61  61 100 W3        30.04R
JUNEAU         CLOUDY    64  63  99 CALM      30.05R FOG
$$

LSZ147-162-211000-
LAKE SUPERIOR

STATION/POSITION TIME  TEMP    WIND        PRES    WAVE
                       AIR SEA DIR/SP/G            HT/PER
                 (UTC) (F)     (DEG/KT/KT) (MB)    (FT/S)
W MID LAKE BUOY  0750   62 60  270/  8/ 10 1015.7R   1/ 3
DEVILS ISLAND    0800   64     220/  8/  9 1016.6S
SAXON HARBOR     0840   59     210/  5/  6 1015.9F
$$

LMZ867-665-643>646-211000-
LAKE MICHIGAN

STATION/POSITION TIME  TEMP    WIND        PRES    WAVE
                       AIR SEA DIR/SP/G            HT/PER
                 (UTC) (F)     (DEG/KT/KT) (MB)    (FT/S)
S GREEN BAY BUOY 0830   72 71  200/  6/  8 1015.4F
N MID LAKE BUOY  0750   69 67  230/  6/  6 1016.2F   3/ 5
NORTHPORT PIER   0840   70     310/  5/  6 1015.6R
KEWAUNEE LAKESHO 0830   66     220/  3/  6 1015.0S
SHEBOYGAN LAKESH 0800   69     170/  7/  7 1015.1F
PORT WASHINGTON  0840   70     270/  4/  6 1017.3R
ATWATER BUOY     0709   71 70  160/  4/  6 1016.6F
MILWAUKEE LAKESH 0840   71        CALM       N/A
S MID LAKE BUOY  0750   74 72  130/  8/ 10 1016.8F   0
KENOSHA   LAKESH 0800   73     160/  3/  4 1016.6
$$

TC  - TEMPERATURE IN CELSIUS
VSB - VISIBILITY IN STATUTE MILES
WCI - WIND CHILL INDEX
HX  - HEAT INDEX





USA.gov is the U.S. government's official web portal to all federal, state and local government web resources and services.